[[{"header":{"parameterUnit":"m.s-1","parameterCategory":1,"la1":30.2991,"la2":30.254,"lo1":-89.0895,"lo2":-89.0444,"dy":0.0017,"dx":0.0017,"nx":28,"ny":28,"refTime":"2024-05-24T21:00:00:Z","depth":0,"parameterNumber":2,"parameterNumberName":"U-component_of_WINDS"},"data":[0,0,0,0,0,0,0,0,0,0,0,0,0,0,0,0,0,0,0,0,0,0,0,0,0,0,0,0,0,0,0,0,0,0,0,0,0,0,0,0,0,0,0,0,0,0,0,0,0,0,0,0,0,0,0,0,0,0,2.5588,2.5588,0,2.5653,2.5653,2.5654,2.5613,2.5611,2.561,2.5608,2.5673,2.5677,2.568,0,0,0,0,0,0,0,0,0,0,0,0,0,2.5427,2.543,2.5588,2.5589,2.5589,2.5653,2.5653,2.5654,2.5614,2.5611,2.5609,2.5607,2.5672,2.5676,2.568,0,0,0,0,0,0,0,0,0,0,0,0,0,2.5495,2.5431,2.5588,2.5577,2.5576,2.5652,2.5653,2.5655,2.5614,2.5611,2.5608,2.5606,2.5671,2.5676,2.5681,2.5771,0,0,2.5697,2.5699,0,0,0,0,0,0,0,0,2.5491,2.55,2.5578,2.5578,2.5577,2.5622,2.5621,2.5694,2.5615,2.56,2.5608,2.5604,2.5658,2.5665,2.5683,2.5774,2.5777,2.5698,2.5701,2.5703,2.5705,0,0,0,0,0,0,0,2.5486,2.5497,2.5613,2.5579,2.5579,2.5568,2.5574,2.5634,2.5644,2.5601,2.5598,2.5606,2.5658,2.5678,2.5684,2.5778,2.5697,2.5702,2.5705,2.5708,2.5944,2.5947,0,0,0,0,0,0,2.5482,2.5494,2.5611,2.5615,2.5526,2.5573,2.558,2.5611,2.5644,2.5646,2.5609,2.5604,2.567,2.5678,2.5686,2.5792,2.5703,2.5708,2.5711,2.5941,2.5944,2.5948,0,0,0,0,0,0,2.5479,2.5493,2.5609,2.5554,2.5568,2.5579,2.5613,2.5613,2.5633,2.565,2.5651,2.5628,2.5668,2.5679,2.575,2.5794,2.571,2.5715,2.5937,2.5942,2.5946,2.6006,0,0,0,0,0,0,2.5475,2.5492,2.5527,2.5555,2.5571,2.5672,2.5616,2.5617,2.5643,2.5637,2.5668,2.567,2.5667,2.5742,2.5755,2.58,2.5719,2.5933,2.5939,2.5945,2.6,2.6012,2.6022,0,0,0,0,0,2.5469,2.5542,2.5529,2.5544,2.5615,2.5675,2.5683,2.5679,2.5647,2.5681,2.5691,2.5669,2.5787,2.575,2.5764,2.5811,2.593,2.5937,2.5944,2.5995,2.6009,2.6022,0,0,0,0,0,0,2.5519,2.5545,2.5532,2.5616,2.5643,2.5668,2.5711,2.5695,2.5732,2.5725,2.5718,2.5725,2.5799,2.5812,2.577,2.5899,2.5853,2.5864,2.5887,2.5901,2.5912,2.5907,2.5724,0,0,0,0,0,2.554,2.5587,2.5607,2.5679,2.5693,2.57,2.5726,2.572,2.5748,2.5759,2.5775,2.5803,2.5846,2.5874,2.5915,2.6002,2.6007,2.6041,2.6052,2.6061,2.607,2.6115,2.6129,2.5971,2.5971,2.597,0,0,2.5583,2.5603,2.5633,2.5689,2.571,2.5758,2.571,2.5763,2.5798,2.5767,2.5835,2.5847,2.5877,2.5956,2.5992,2.5969,2.6115,2.607,2.6077,2.6081,2.6123,2.6138,2.6152,2.5975,2.5975,2.5974,0,0,2.5686,2.5707,2.5768,2.5789,2.5821,2.5825,2.584,2.5867,2.5874,2.5941,2.5919,2.596,2.6035,2.6057,2.6078,2.6188,2.6169,2.6202,2.626,2.6304,2.6316,2.6327,2.6365,2.6379,2.6211,2.6211,2.6211,0,2.5735,2.5807,2.5801,2.5856,2.588,2.5855,2.5916,2.5937,2.5981,2.5998,2.5973,2.6065,2.6084,2.6167,2.6193,2.6212,2.6227,2.6198,2.6315,2.6326,2.6336,2.6372,2.6386,2.6214,2.6214,2.6214,2.6213,0,2.5865,2.5915,2.5961,2.6004,2.6033,2.6091,2.6093,2.6124,2.6116,2.6122,2.619,2.6212,2.6255,2.6275,2.6267,2.6356,2.6341,2.6316,2.627,2.6355,2.6388,2.6402,2.622,2.6218,2.6217,2.6216,0,0,2.6001,2.6039,2.6056,2.6074,2.6107,2.6145,2.6201,2.6244,2.627,2.6301,2.6347,2.641,2.6387,2.641,2.6405,2.6444,2.6527,2.6413,2.6414,2.6432,2.6625,2.6643,2.6659,2.6515,2.6517,2.652,2.6621,0,2.6105,2.6203,2.6199,2.629,2.6335,2.6311,2.636,2.6385,2.6392,2.643,2.6438,2.6483,2.6449,2.6463,2.65,2.6509,2.6566,2.6502,2.6556,2.6558,2.6548,2.6676,2.6696,2.6791,2.6635,2.6637,2.6639,0,2.6239,2.6274,2.6369,2.6394,2.6413,2.6457,2.6495,2.6533,2.656,2.6562,2.6589,2.6577,2.6632,2.6586,2.6661,2.6618,2.664,2.6647,2.6651,2.6655,2.6603,2.6682,2.6821,2.6835,2.6659,2.6658,2.6656,0,2.6326,2.6397,2.6463,2.648,2.6511,2.6542,2.6556,2.6581,2.6606,2.664,2.6656,2.6696,2.6717,2.6747,2.6746,2.6712,2.6822,2.6775,2.6824,2.6824,2.6847,2.6845,2.699,2.6864,2.6864,2.6863,2.6863,0,2.6441,2.65,2.6502,2.6543,2.6608,2.6603,2.6667,2.6678,2.67,2.6741,2.6723,2.6762,2.6758,2.6797,2.6796,2.6858,2.6868,2.687,2.6869,2.6871,2.6871,2.6885,2.6877,2.6867,2.6866,2.6865,2.6865,0,2.6549,2.6553,2.6623,2.6647,2.6654,2.6701,2.6721,2.6758,2.6764,2.6816,2.6828,2.6837,2.6881,2.6883,2.6935,2.6934,2.7009,2.7001,2.7,2.6997,2.7045,2.704,2.7203,2.7223,2.7085,2.7086,2.7087,0,2.6622,2.6666,2.6695,2.6721,2.6737,2.6781,2.6806,2.6803,2.683,2.6864,2.6897,2.6941,2.6975,2.7048,2.7058,2.7097,2.7089,2.7143,2.7095,2.7095,2.7088,2.7084,2.7088,2.7152,2.7154,2.7155,2.7156,0,2.6749,2.6749,2.6787,2.6826,2.6858,2.6888,2.6916,2.6939,2.6938,2.697,2.7016,2.7042,2.7095,2.7138,2.7175,2.7189,2.7172,2.7172,2.7184,2.7186,2.7183,2.7184,2.7024,2.7168,2.7166,2.7166,2.7165,2.7164,2.684,2.6878,2.6904,2.6947,2.6968,2.6994,2.7031,2.704,2.7079,2.7121,2.7117,2.7167,2.7192,2.7241,2.7258,2.7296,2.7277,2.7297,2.7301,2.7306,2.731,2.7178,2.7303,2.7303,2.7303,2.7303,2.7302,0,2.6965,2.6981,2.702,2.706,2.7094,2.7076,2.7106,2.7135,2.7179,2.7204,2.7238,2.729,2.7331,2.7344,2.7384,2.7412,2.7405,2.7422,2.7419,2.7422,2.7325,2.7309,2.7427,2.7427,2.7427,2.7427,2.7427,2.7427,2.7034,2.7097,2.71,2.7172,2.7187,2.7236,2.7255,2.7279,2.7298,2.7357,2.7391,2.74,2.7419,2.746,2.7496,2.7499,2.7514,2.7534,2.7533,2.7442,2.7429,2.7417,2.7402,2.7537,2.7538,2.7627,2.7627,2.7628]},{"header":{"parameterUnit":"m.s-1","parameterCategory":1,"la1":30.2991,"la2":30.254,"lo1":-89.0895,"lo2":-89.0444,"dy":0.0017,"dx":0.0017,"nx":28,"ny":28,"refTime":"2024-05-24T21:00:00:Z","depth":0,"parameterNumber":3,"parameterNumberName":"V-component_of_WINDS"},"data":[0,0,0,0,0,0,0,0,0,0,0,0,0,0,0,0,0,0,0,0,0,0,0,0,0,0,0,0,0,0,0,0,0,0,0,0,0,0,0,0,0,0,0,0,0,0,0,0,0,0,0,0,0,0,0,0,0,0,3.9034,3.9035,0,3.9143,3.9144,3.9146,3.9116,3.9114,3.9112,3.911,3.9218,3.9223,3.9228,0,0,0,0,0,0,0,0,0,0,0,0,0,3.8795,3.88,3.9034,3.9035,3.9036,3.9143,3.9144,3.9146,3.9117,3.9114,3.9112,3.9109,3.9217,3.9222,3.9228,0,0,0,0,0,0,0,0,0,0,0,0,0,3.8901,3.8801,3.9033,3.9035,3.9036,3.9143,3.9145,3.9146,3.9117,3.9114,3.9111,3.9108,3.9215,3.9222,3.9229,3.934,0,0,3.9252,3.9255,0,0,0,0,0,0,0,0,3.8895,3.891,3.9033,3.9035,3.9036,3.9113,3.91,3.9211,3.9118,3.9086,3.911,3.9106,3.9186,3.9195,3.9223,3.9345,3.9349,3.9252,3.9257,3.926,3.9262,0,0,0,0,0,0,0,3.8888,3.8905,3.9077,3.9035,3.9037,3.9029,3.904,3.9121,3.9153,3.9089,3.9087,3.9101,3.9186,3.9216,3.9225,3.9351,3.9252,3.9259,3.9263,3.9266,3.9569,3.9572,0,0,0,0,0,0,3.888,3.8899,3.9073,3.908,3.8957,3.9036,3.9048,3.9092,3.9152,3.9158,3.9103,3.9099,3.9205,3.9216,3.9229,3.9362,3.926,3.9267,3.9271,3.9565,3.957,3.9574,0,0,0,0,0,0,3.8875,3.8896,3.9069,3.8989,3.9011,3.9043,3.9092,3.9095,3.9125,3.9163,3.9168,3.9128,3.9203,3.9218,3.9313,3.9366,3.927,3.9277,3.9561,3.9567,3.9572,3.963,0,0,0,0,0,0,3.8868,3.8894,3.8938,3.8991,3.9015,3.9153,3.9095,3.91,3.9139,3.9134,3.9188,3.9193,3.9201,3.9302,3.932,3.9374,3.9282,3.9556,3.9563,3.957,3.9624,3.9637,3.9648,0,0,0,0,0,3.886,3.8949,3.894,3.8961,3.907,3.9156,3.917,3.9178,3.9143,3.9186,3.921,3.9192,3.9357,3.9312,3.9332,3.9389,3.9553,3.9561,3.9569,3.9618,3.9634,3.9648,0,0,0,0,0,0,3.89,3.8956,3.8947,3.9056,3.9101,3.9151,3.9206,3.9195,3.925,3.9243,3.925,3.9262,3.9359,3.9383,3.9332,3.9499,3.945,3.9462,3.948,3.9496,3.9508,3.95,3.9289,0,0,0,0,0,3.8922,3.8988,3.9032,3.9124,3.9148,3.9173,3.921,3.9213,3.926,3.9279,3.9309,3.9355,3.9417,3.9457,3.9516,3.9627,3.9638,3.9676,3.9688,3.9698,3.9709,3.9769,3.9786,3.96,3.96,3.96,0,0,3.8967,3.9006,3.9047,3.9133,3.9169,3.9236,3.9189,3.9262,3.9312,3.9289,3.9381,3.9405,3.9455,3.9558,3.9605,3.9581,3.9763,3.9709,3.9716,3.9722,3.9779,3.9797,3.9812,3.9606,3.9605,3.9604,0,0,3.9084,3.912,3.9201,3.9238,3.9293,3.9309,3.9328,3.9379,3.9395,3.9487,3.9472,3.9529,3.9636,3.9673,3.9706,3.9836,3.9821,3.9855,3.992,3.9978,3.9993,4.0006,4.0052,4.0069,3.9866,3.9866,3.9866,0,3.9133,3.9235,3.9243,3.9318,3.9356,3.934,3.9421,3.9456,3.9527,3.9553,3.9526,3.966,3.9693,3.9804,3.9836,3.9863,3.9884,3.9849,3.999,4.0003,4.0015,4.006,4.0077,3.987,3.9869,3.9869,3.9869,0,3.9292,3.9363,3.9421,3.9492,3.9536,3.9614,3.9633,3.9676,3.9675,3.9693,3.9787,3.9826,3.9893,3.9919,3.9918,4.003,4.0014,3.9988,3.9939,4.0037,4.0079,4.0096,3.9875,3.9874,3.9873,3.9872,0,0,3.9438,3.9512,3.9534,3.9565,3.9625,3.9679,3.9755,3.9822,3.9859,3.9908,3.9971,4.0062,4.0039,4.0076,4.0079,4.013,4.0231,4.0098,4.0099,4.0122,4.0357,4.0376,4.0395,4.0221,4.0224,4.0227,4.0352,0,3.956,3.9696,3.9706,3.9828,3.9893,3.9878,3.9944,3.9987,4.0006,4.0063,4.0083,4.0148,4.0112,4.0135,4.0185,4.0208,4.0278,4.0199,4.0279,4.0282,4.0267,4.0417,4.0437,4.0554,4.0369,4.0371,4.0373,0,3.9721,3.9777,3.9906,3.9956,3.9984,4.0043,4.0105,4.016,4.0207,4.0218,4.0259,4.0255,4.0331,4.0279,4.0384,4.0331,4.0364,4.038,4.0384,4.0392,4.0334,4.0429,4.0592,4.0609,4.0399,4.0397,4.0395,0,3.9815,3.9922,4.0013,4.004,4.0101,4.0143,4.017,4.0215,4.0254,4.0307,4.0333,4.0394,4.0427,4.0474,4.0485,4.0446,4.059,4.0539,4.06,4.06,4.0632,4.0629,4.0802,4.0653,4.0652,4.0652,4.0652,0,3.995,4.003,4.0056,4.0112,4.02,4.0209,4.0296,4.032,4.036,4.0419,4.0409,4.0465,4.0477,4.0535,4.0544,4.063,4.0644,4.0654,4.0656,4.0655,4.0654,4.0677,4.067,4.0657,4.0656,4.0655,4.0654,0,4.007,4.009,4.0189,4.0238,4.0253,4.0316,4.0357,4.0411,4.0428,4.0504,4.0522,4.0549,4.0617,4.0633,4.0713,4.0719,4.082,4.0814,4.0805,4.0805,4.0865,4.0859,4.1058,4.1085,4.0918,4.092,4.0921,0,4.0155,4.0216,4.0273,4.0313,4.0342,4.0406,4.0447,4.0458,4.05,4.0559,4.0605,4.0671,4.0725,4.0834,4.086,4.0921,4.0916,4.0981,4.0925,4.0922,4.0917,4.0913,4.0919,4.0992,4.0994,4.0995,4.0997,0,4.0305,4.0312,4.0371,4.0435,4.0483,4.0533,4.0581,4.0613,4.0631,4.0679,4.0748,4.079,4.0872,4.0938,4.1,4.1026,4.1014,4.1014,4.1032,4.1032,4.1024,4.103,4.0835,4.101,4.1008,4.1007,4.1007,4.1006,4.041,4.0464,4.0512,4.0578,4.0615,4.066,4.0713,4.0737,4.0796,4.0865,4.0867,4.0943,4.0988,4.107,4.11,4.1158,4.1138,4.1163,4.1169,4.1176,4.1181,4.1015,4.1169,4.1169,4.1168,4.1168,4.1168,0,4.0559,4.059,4.0651,4.0718,4.077,4.0756,4.0807,4.0851,4.0919,4.0963,4.1016,4.1096,4.116,4.1192,4.1255,4.1295,4.1291,4.1311,4.1309,4.1315,4.1196,4.1174,4.1313,4.1313,4.1313,4.1313,4.1313,4.1313,4.0643,4.0733,4.0746,4.0853,4.0883,4.0958,4.0989,4.103,4.1065,4.1155,4.1209,4.1229,4.1268,4.1334,4.1391,4.1399,4.1422,4.1445,4.145,4.1338,4.1323,4.1309,4.1289,4.145,4.145,4.1564,4.1565,4.1566]}]]